Date String (YYYY-MM-DD hh:mm:ss) UTC,Instrument flags,Ambient pressure (hPa),Sample flow (lpm),Bypass flow (lpm),Sample temperature (°C),Ambient temperature (°C),ASC tube jacket temperature (°C),LED temperature (°C),Box temperature (°C),Sample RH (%),Span deviation,Mass concentration (μg/m³),Mass concentration (μg/m³),Mass concentration (μg/m³)
DateTimeUTC,F1_M11,P_M11,Q1_M11,Q2_M11,T1_M11,T2_M11,T3_M11,T4_M11,T5_M11,U1_M11,ZSPAN_M11,X0_M11,X2_M11,X1_M11
2022-10-14 13:00:00,,0824.0,5.00,0.00,27.5,25.8,00.0,36.4,29.4,09.0,0000.0,0006.50,0003.97,0003.64
2022-10-14 13:01:00,,0824.0,5.00,0.00,27.5,25.8,00.0,36.4,29.4,08.9,0000.0,0006.46,0003.94,0003.64
2022-10-14 13:02:00,,0824.0,5.00,0.00,27.5,25.8,00.0,36.4,29.4,09.0,0000.0,0006.47,0003.92,0003.63
2022-10-14 13:03:00,,0824.0,5.00,0.00,27.5,25.8,00.0,36.4,29.4,09.0,0000.0,0006.53,0003.93,0003.62
2022-10-14 13:04:00,,0824.1,5.00,0.00,27.5,25.9,00.0,36.4,29.4,09.3,0000.0,0006.62,0003.90,0003.59
2022-10-14 13:05:00,,0824.1,5.00,0.00,27.5,25.8,00.0,36.4,29.4,09.7,0000.0,0007.31,0003.88,0003.56
2022-10-14 13:06:00,,0824.0,5.00,0.00,27.5,25.8,00.0,36.4,29.4,09.5,0000.0,0007.29,0003.85,0003.55
2022-10-14 13:07:00,,0824.0,5.00,0.00,27.5,25.8,00.0,36.4,29.4,09.4,0000.0,0007.21,0003.86,0003.54
2022-10-14 13:08:00,,0824.1,4.98,0.00,27.5,25.8,00.0,36.4,29.4,09.4,0000.0,0007.16,0003.84,0003.53
2022-10-14 13:09:00,,0824.0,5.02,0.00,27.5,25.8,00.0,36.4,29.4,09.4,0000.0,0007.05,0003.82,0003.51
2022-10-14 13:10:00,,0824.1,5.00,0.00,27.5,25.8,00.0,36.4,29.4,09.5,0000.0,0007.02,0003.81,0003.50
2022-10-14 13:11:00,,0824.1,5.00,0.00,27.5,25.8,00.0,36.3,29.3,09.7,0000.0,0006.90,0003.80,0003.50
2022-10-14 13:12:00,,0824.0,5.00,0.00,27.5,25.9,00.0,36.3,29.4,09.7,0000.0,0006.81,0003.79,0003.49
2022-10-14 13:13:00,,0824.1,5.00,0.00,27.5,25.8,00.0,36.3,29.3,09.7,0000.0,0006.66,0003.79,0003.50
2022-10-14 13:14:00,,0824.0,5.00,0.00,27.4,25.7,00.0,36.3,29.3,09.7,0000.0,0006.56,0003.79,0003.51
2022-10-14 13:15:00,,0824.1,5.00,0.00,27.4,25.7,00.0,36.3,29.3,09.7,0000.0,0006.35,0003.81,0003.53
2022-10-14 13:16:00,,0824.0,5.00,0.00,27.4,25.7,00.0,36.3,29.3,09.6,0000.0,0005.78,0003.82,0003.54
2022-10-14 13:17:00,,0824.0,5.00,0.00,27.4,25.8,00.0,36.3,29.3,09.6,0000.0,0005.95,0003.82,0003.54
2022-10-14 13:18:00,,0824.1,5.01,0.00,27.4,25.8,00.0,36.3,29.3,09.6,0000.0,0005.93,0003.82,0003.55
2022-10-14 13:19:00,,0824.1,5.00,0.00,27.4,25.9,00.0,36.3,29.3,09.7,0000.0,0006.35,0003.86,0003.56
2022-10-14 13:20:00,,0824.1,5.00,0.00,27.5,25.9,00.0,36.3,29.4,09.9,0000.0,0006.85,0003.90,0003.58
2022-10-14 13:21:00,,0824.0,5.00,0.00,27.5,25.9,00.0,36.3,29.4,09.8,0000.0,0007.01,0003.92,0003.59
2022-10-14 13:22:00,,0824.1,5.00,0.00,27.5,25.9,00.0,36.3,29.4,09.8,0000.0,0007.16,0003.95,0003.60
2022-10-14 13:23:00,,0824.0,5.00,0.00,27.5,26.0,00.0,36.3,29.4,09.8,0000.0,0007.21,0003.97,0003.61
2022-10-14 13:24:00,,0824.0,4.98,0.00,27.5,26.0,00.0,36.3,29.4,09.6,0000.0,0007.32,0004.00,0003.62
2022-10-14 13:25:00,,0824.0,5.00,0.00,27.5,26.0,00.0,36.3,29.4,09.5,0000.0,0007.42,0004.02,0003.61
2022-10-14 13:26:00,,0824.0,5.00,0.00,27.5,26.0,00.0,36.3,29.4,09.6,0000.0,0007.39,0004.00,0003.61
2022-10-14 13:27:00,,0824.1,5.01,0.00,27.5,26.0,00.0,36.3,29.4,09.7,0000.0,0007.34,0003.99,0003.61
2022-10-14 13:28:00,,0824.0,5.00,0.00,27.5,26.0,00.0,36.3,29.4,09.6,0000.0,0007.55,0003.98,0003.61
2022-10-14 13:29:00,,0824.0,5.00,0.00,27.5,26.0,00.0,36.3,29.5,09.5,0000.0,0007.85,0003.98,0003.61
2022-10-14 13:30:00,,0824.0,5.00,0.00,27.5,26.0,00.0,36.3,29.5,09.5,0000.0,0007.78,0003.95,0003.60
2022-10-14 13:31:00,,0824.1,5.00,0.00,27.5,26.0,00.0,36.3,29.5,09.4,0000.0,0007.53,0003.90,0003.60
2022-10-14 13:32:00,,0824.1,4.99,0.00,27.5,26.1,00.0,36.3,29.5,09.5,0000.0,0007.99,0003.90,0003.59
2022-10-14 13:33:00,,0824.1,4.99,0.00,27.5,26.1,00.0,36.3,29.5,09.4,0000.0,0008.19,0003.89,0003.59
2022-10-14 13:34:00,,0824.1,5.01,0.00,27.6,26.1,00.0,36.3,29.5,09.4,0000.0,0008.10,0003.85,0003.58
2022-10-14 13:35:00,,0824.1,5.01,0.00,27.6,26.1,00.0,36.3,29.5,09.4,0000.0,0008.08,0003.86,0003.59
2022-10-14 13:36:00,,0824.1,5.00,0.00,27.6,26.1,00.0,36.3,29.5,09.4,0000.0,0008.38,0003.84,0003.59
2022-10-14 13:37:00,,0824.1,5.01,0.00,27.6,26.1,00.0,36.3,29.5,09.5,0000.0,0008.67,0003.84,0003.60
2022-10-14 13:38:00,,0824.1,5.01,0.00,27.6,26.1,00.0,36.4,29.5,09.4,0000.0,0008.57,0003.85,0003.60
2022-10-14 13:39:00,,0824.1,5.00,0.00,27.6,26.1,00.0,36.4,29.6,09.4,0000.0,0008.48,0003.90,0003.61
2022-10-14 13:40:00,,0824.1,5.00,0.00,27.6,26.1,00.0,36.4,29.6,09.6,0000.0,0008.24,0003.91,0003.62
2022-10-14 13:41:00,,0824.1,4.99,0.00,27.6,26.2,00.0,36.4,29.5,09.9,0000.0,0008.04,0003.92,0003.62
2022-10-14 13:42:00,,0824.1,5.00,0.00,27.6,26.2,00.0,36.4,29.6,09.9,0000.0,0008.04,0003.93,0003.62
2022-10-14 13:43:00,,0824.1,5.01,0.00,27.6,26.2,00.0,36.4,29.6,10.1,0000.0,0007.50,0003.93,0003.62
2022-10-14 13:44:00,,0824.1,5.00,0.00,27.6,26.2,00.0,36.4,29.6,10.2,0000.0,0007.36,0003.97,0003.63
2022-10-14 13:45:00,,0824.1,5.00,0.00,27.6,26.2,00.0,36.4,29.6,10.2,0000.0,0007.41,0003.99,0003.64
2022-10-14 13:46:00,,0824.1,5.01,0.00,27.6,26.2,00.0,36.4,29.6,10.3,0000.0,0007.92,0003.97,0003.64
2022-10-14 13:47:00,,0824.1,5.01,0.00,27.7,26.2,00.0,36.4,29.6,10.1,0000.0,0007.98,0003.97,0003.64
2022-10-14 13:48:00,,0824.1,5.00,0.00,27.7,26.3,00.0,36.4,29.6,10.0,0000.0,0007.80,0003.99,0003.65
2022-10-14 13:49:00,,0824.1,5.00,0.00,27.7,26.3,00.0,36.4,29.6,09.9,0000.0,0007.81,0004.00,0003.67
2022-10-14 13:50:00,,0824.1,4.99,0.00,27.7,26.3,00.0,36.4,29.6,09.9,0000.0,0007.70,0003.98,0003.67
2022-10-14 13:51:00,,0824.1,4.99,0.00,27.7,26.2,00.0,36.4,29.6,09.9,0000.0,0007.69,0003.97,0003.67
2022-10-14 13:52:00,,0824.1,5.00,0.00,27.7,26.2,00.0,36.5,29.6,09.9,0000.0,0007.97,0003.98,0003.67
2022-10-14 13:53:00,,0824.1,5.00,0.00,27.7,26.2,00.0,36.5,29.6,09.9,0000.0,0008.64,0004.01,0003.68
2022-10-14 13:54:00,,0824.1,5.00,0.00,27.7,26.2,00.0,36.5,29.6,09.9,0000.0,0008.66,0004.03,0003.69
2022-10-14 13:55:00,,0824.1,5.00,0.00,27.7,26.2,00.0,36.5,29.6,09.8,0000.0,0008.69,0004.03,0003.69
2022-10-14 13:56:00,,0824.1,5.00,0.00,27.7,26.3,00.0,36.5,29.6,10.1,0000.0,0008.80,0004.07,0003.70
2022-10-14 13:57:00,,0824.1,4.99,0.00,27.7,26.3,00.0,36.5,29.7,10.2,0000.0,0008.42,0004.08,0003.71
2022-10-14 13:58:00,,0824.1,4.99,0.00,27.7,26.3,00.0,36.5,29.7,10.3,0000.0,0008.17,0004.11,0003.71
2022-10-14 13:59:00,,0824.1,5.00,0.00,27.7,26.3,00.0,36.5,29.6,10.7,0000.0,0008.26,0004.12,0003.71
